Other Public Products
Issued by NWS Grand Forks, ND

Home | Current Version | Previous Version | Graphics & Text | Print | Product List | Glossary On
Versions: 1 2 3 4 5 6 7 8 9 10 11 12 13 14 15 16 17 18 19 20 21 22 23 24 25 26 27 28 29 30 31 32 33 34 35 36 37 38 39 40 41 42 43 44 45 46 47 48 49 50
000
FPUS83 KFGF 120710
OPUFGF
PRAIRIE TO PINES WEATHER ROUNDUP
NATIONAL WEATHER SERVICE EASTERN NORTH DAKOTA/GRAND FORKS ND
200 AM CDT SAT JUL 12 2014

 **SATELLITE DATA USED TO AUGMENT SKY COVER AT AUTOMATED STATIONS**
 *****  WEATHER ACROSS EASTERN NORTH DAKOTA  *****

CITY           SKY/WX    TMP DP  RH WIND       PRES   REMARKS
GRAND FORKS    PTCLDY    60  56  86 NW5       30.02F
GRAND FORKS AF PTCLDY    59  58  97 NW6       30.04F
GRAND CITY NWS   N/A     61 N/A N/A NW2         N/A
BUXTON         NOT AVBL
DEVILS LAKE    CLEAR     61  54  77 NW5       30.06S
FARGO          MOCLDY    65  57  75 NW3       30.03S
WAHPETON ARPT  CLOUDY    70  52  52 N9        30.03S
$$

 *****  WEATHER ACROSS CENTRAL AND WESTERN NORTH DAKOTA  *****

CITY           SKY/WX    TMP DP  RH WIND       PRES   REMARKS
JAMESTOWN      MOCLDY    64  56  75 N8        30.06F
BISMARCK       CLOUDY    66  58  75 NE5       30.10F
MINOT          PTCLDY    60  53  77 W9        30.09F
MINOT AFB      CLEAR     56  56  99 W7        30.09F
GARRISON         N/A     59  57  93 CALM      30.11S
WILLISTON      MOCLDY    58  53  84 E3        30.12F
DICKINSON      MOCLDY    63  57  81 E5        30.11F
HETTINGER      CLOUDY    62  57  83 NE9       30.12F THUNDER
$$

 *****  OTHER OBSERVATIONS NORTHEAST NORTH DAKOTA  *****

CITY           SKY/WX    TMP DP  RH WIND       PRES   REMARKS
WALHALLA         N/A     61  55  82 NW7         N/A
LANGDON        FAIR      55  52  88 NW8       30.06S
CAVALIER       FAIR      59  54  82 W7        30.03S
GRAFTON        FAIR      63  57  82 W6        30.03S
CANDO          FAIR      55  52  88 NW6       30.07F
FORT TOTTEN      N/A     59  58  97 CALM      29.95
ROLLA          CLOUDY    54  54 100 NW8       30.09S
RUGBY          FAIR      55  55 100 NW5       30.08F
 ***** THE ABOVE OBSERVATIONS ARE NON NWS ARE NOT QUALITY
        CONTROLLED AND MAY MIS-REPORT RAIN FOR SNOW...
$$

 *****  OTHER OBSERVATIONS SOUTHEAST NORTH DAKOTA *****

CITY           SKY/WX    TMP DP  RH WIND       PRES   REMARKS
COOPERSTOWN    NOT AVBL
VALLEY CITY    CLOUDY    63  63 100 N7        30.06F
OAKES          NOT AVBL
GWINNER        MOSUNNY   68  59  73 N7        30.06S
SHEYENNE NWR     N/A     68  56  64 N3        29.95
BUFFALO        NOT AVBL
WYNDMERE       NOT AVBL
 ***** THE ABOVE OBSERVATIONS ARE NON NWS ARE NOT QUALITY
       CONTROLLED AND MAY MIS-REPORT RAIN FOR SNOW...
$$

  *****  WEATHER ACROSS NORTHERN MINNESOTA  *****

CITY           SKY/WX    TMP DP  RH WIND       PRES   REMARKS
FLAG ISLAND    CLEAR     64  55  72 W7        29.98S HAZE
WARROAD        CLEAR     61  55  82 W3        30.01S
ROSEAU         CLEAR     61  55  82 W3        30.01S
HALLOCK        CLEAR     61  55  82 CALM      30.02S
THF RVR FALLS  PTCLDY    61  55  82 NW3       30.02F
HALSTAD          N/A     63  55  76 NW5         N/A
FOSSTON        PTCLDY    57  52  82 CALM      30.03F
BAUDETTE       PTCLDY    60  55  83 W3        30.01S
WASKISH        NOT AVBL
CROOKSTON      PTCLDY    61  55  82 CALM      30.03S
$$
  *****  WEATHER ACROSS CENTRAL AND WEST MINNESOTA  *****

CITY           SKY/WX    TMP DP  RH WIND       PRES   REMARKS
BEMIDJI        PTCLDY    60  53  76 W5        30.02S
PARK RAPIDS    MOCLDY    64  57  78 NW3       30.03S
WADENA         MOCLDY    64  59  82 NW5       30.02S
DETROIT LAKES  MOCLDY    66  57  72 N5        30.05S
MOORHEAD       MOCLDY    64  63  94 N5        30.04S
FERGUS FALLS   MOCLDY    70  55  60 N3        30.02S
ELBOW LAKE     NOT AVBL
MORRIS MN      MOCLDY    72  68  88 N6        30.00S
STAPLES        MOCLDY    64  61  88 NW5       30.02S
WHEATON        CLOUDY    70  55  60 N8        30.04S
$$
  *****  WEATHER ELSEWHERE ACROSS MINNESOTA  *****

CITY           SKY/WX    TMP DP  RH WIND       PRES   REMARKS
DULUTH         FOG       67  66  97 W8        29.99S VSB 1/2
INTRNTL FALLS  CLEAR     54  52  93 CALM      29.99R
ELY            CLEAR     59  57  94 CALM      29.98S
CLOQUET        CLEAR     64  63  94 SW6       29.99F
BRAINERD       MOCLDY    68  62  81 CALM      30.01S
HIBBING        CLEAR     55  53  93 CALM      29.98F FOG
ALEXANDRIA     MOCLDY    70  61  73 N7        30.03F
SAINT CLOUD    FOG       69  67  93 CALM      29.99S VSB 1/4
MINNEAPOLIS    MOCLDY    73  69  87 S3        29.99F
$$

  *****  WEATHER ACROSS SOUTH DAKOTA  *****

CITY           SKY/WX    TMP DP  RH WIND       PRES   REMARKS
SIOUX FALLS    CLOUDY    73  71  93 S8        30.00S FOG
BROOKINGS      NOT AVBL
WATERTOWN      CLOUDY    70  66  87 N5        30.03S
HURON          LGT RAIN  75  70  84 E3        29.97F
SISSETON         N/A     68  63  84 N7        30.02S
ABERDEEN       CLOUDY    68  60  75 NE7       30.03S
MITCHELL       CLOUDY    76  74  93 S3        30.00R
PIERRE         CLOUDY    74  68  81 NE9       30.00S
MOBRIDGE       CLOUDY    70  58  65 NE9       30.04S
RAPID CITY     CLOUDY    67  57  70 SW5       30.12F
$$

  *****  SOME WEATHER IN NEARBY STATES *****

CITY           SKY/WX    TMP DP  RH WIND       PRES   REMARKS
GLASGOW MT     MOCLDY    60  55  83 E7        30.13S
GREAT FALLS MT CLEAR     65  53  65 E8        30.17S
CHEYENNE WY    CLOUDY    60  59  96 E7        30.25F
SCOTTSBLUFF NE MOCLDY    62  61  96 SW8       30.18R
OMAHA NE       MOCLDY    77  73  87 SE5       29.97S
DES MOINES IA  CLOUDY    75  72  90 E5        29.99F THUNDER
DAVENPORT IA   MOCLDY    74  66  76 S10       30.04F
CHICAGO IL     CLOUDY    72  59  63 S5        30.10F
EAU CLAIRE WI  CLOUDY    72  67  84 S6        30.01F
LA CROSSE WI   PTCLDY    70  65  84 SE5       30.02F
$$

  *****  SOME NATIONAL WEATHER *****

CITY           SKY/WX    TMP DP  RH WIND       PRES   REMARKS
LA GUARDIA NY  PTCLDY    72  64  76 CALM      30.21F
RALEIGH NC     PTCLDY    68  66  94 CALM      30.22S FOG
ATLANTA GA     PTCLDY    72  69  90 E3        30.17F
NEW ORLEANS LA CLOUDY    76  73  91 CALM      30.12S
OKLAHOMA CITY  PTCLDY    76  62  62 S6        30.12R
ALBUQUERQUE NM PTCLDY    71  53  52 N6        30.24F
SALT LAKE CITY CLEAR     72  58  61 SW3       30.09S
LOS ANGELES CA PTCLDY    67  61  81 SW6       30.00R
BOISE ID       CLOUDY    84  40  21 W9        30.00R
SEATTLE WA     PTCLDY    71  54  54 CALM      30.03R
$$

*** WEATHER ACROSS MANITOBA...SASKATCHEWAN AND ONTARIO ***
                ***ONTARIO***

CITY           SKY/WX    TMP DP  RH WIND       PRES   REMARKS
GERALDTON      MOCLDY    61  59  94 CALM      29.86F
THUNDER BAY    NOT AVBL
SIOUX LOOKOUT  NOT AVBL
TORONTO        MOCLDY    64  55  72 NE2       30.16F
BIG TROUT LK   CLOUDY    59  50  72 W13G18    29.71R
PICKLE LAKE    NOT AVBL
DRYDEN         CLEAR     59  52  77 W6        29.96R
KENORA         CLEAR     63  54  72 W7        29.99F
$$
                *** MANITOBA***

CITY           SKY/WX    TMP DP  RH WIND       PRES   REMARKS
BRANDON        CLEAR     54  52  94 W7        30.07S
DAUPHIN        CLEAR     57  52  82 SW10      30.02S
ISLAND LAKE    PTCLDY    59  48  67 W13       29.80F
PILOT MOUND      N/A     52  50  93 NW5         N/A
THE PAS        PTCLDY    59  50  72 W8        29.87S
THOMPSON       PTCLDY    48  46  93 SW8       29.72S
WINNIPEG       NOT AVBL
LYNN LAKE      CLEAR     50  46  87 W6        29.75S
CHURCHILL      LGT RAIN  48  46  93 NW21G28   29.41F FOG
GILLAM         PTCLDY    54  45  71 NW24G36   29.61R
$$
                ***SASKATCHEWAN***

CITY           SKY/WX    TMP DP  RH WIND       PRES   REMARKS
ESTEVAN        CLEAR     54  52  94 W2        30.12F
KINDERSLEY     PTCLDY    55  50  82 VRB2      30.12S
LLOYDMINSTER   CLEAR     55  50  82 SW10      30.05S
PRINCE ALBERT  NOT AVBL
REGINA         CLEAR     52  50  93 SW7       30.11F



USA.gov is the U.S. government's official web portal to all federal, state and local government web resources and services.